STARLINK-31920, 59907

Orbit data source: Space-Track

STARLINK-31920, 59907 is a payload satellite owned by SpaceX/Seattle (US) in LEO that was launched on Tue, 28 May 2024 UTC via an FALCON 9 launch vehicle from the Air Force Eastern Test Range (AFETR). Payload-class satellites include a variety of spacecraft equipped with specific instruments for various scientific and technological missions. These include communications satellites like Starlink; space stations such as the ISS; scientific satellites like the Hubble; Earth observation satellites from companies like Planet Labs, Umbra, and HawkEye 360; GPS; miniature CubeSats for education and research; and military/defense satellites.

Loading next visibility...
Identifier
59907, 2024-100Y
Orbit
LEO
Last TLE update
23 hours ago
Origin
Manufacturer
SpaceX/Seattle
Mission
Partially operational spacecraft
Bus & Motor
STARLINK V2M, Unknown motor
Mass
730 kg wet, ~700 kg dry
Launch date (UTC)
2024-05-28 (11 months ago)
Launch vehicle
FALCON 9
Launch site
Air Force Eastern Test Range (AFETR)
Object type
Payload
Rocket body
Debris
Shape & HBR
Unknown
Radar Cross Section
Large (>1 m²)

Expand to show TLE details & history

TLE from 23 hours ago
0 STARLINK-31920
1 59907U 24100Y   25128.38448130 -.00002034  00000-0 -64407-4 0  9992
2 59907  42.9986  17.1507 0001010 272.2182  87.8554 15.27582314 54720
Epoch: 2025-05-08T09:13Z
Definitive object data (Epoch: 2025-05-08T09:13:39.184Z)
Latitude
-0.00001°
Longitude
12.28168°
Altitude
482.792 km
Speed
7.626 km/s
True Right ascension
01h 08m 36s
True Declination
0° 00' 00"
Sunlit
Object was in daylight at TLE epoch
Visualization TLE readout
Latitude
-41.30591°
Longitude
-62.76039°
Altitude
494.948 km
Speed
7.618 km/s
Apparent Right ascension
00h 09m 41s
Apparent Declination
-62° 15' 25"
Sunlit
Object is in daylight
Visualization observer readout
Local Sidereal Time
16:35:35
Azimuth
142.666° SSE
Elevation
-45.269°
Doppler factor
1
Orbital elements
Apogee altitude
485.681 km
Perigee altitude
484.294 km
Semi-major axis
6,863.125 km
Eccentricity
0.000101
Inclination
42.9986°
RAAN
17.1507°
Arg. of periapsis
272.2182°
True anomaly
87.86697°
Mean anomaly
87.8554°
Eccentric anomaly
87.86118°
Mean motion
3.81734 °/min
BSTAR
-0.000064407
Orbital period
94.31 mins
Loading maneuver chart data...
Loading SW <> Apogee altitude chart data...
Loading historical data...
Loading historical data...
Loading historical data...
Loading historical data...
Loading historical data...
Loading historical data...
Loading historical data...

STARLINK-31920 Visibility forecast

Observer location: undefined°, undefined°

Span
Click to sort rows by Start time (UTC) header in descending order
Start Az.
Max El. time (UTC)
Max El. Az.
Max El.
End time (UTC)
End Az.
5 mins2025-05-09 19:59:25.648Z227.768° WSW2025-05-09 20:01:25.648Z172.676° S39.791°2025-05-09 20:04:25.648Z79.465° E
5 mins2025-05-09 21:38:25.648Z280.101° WNW2025-05-09 21:40:25.648Z336.075° NNW39.402°2025-05-09 21:43:25.648Z68.447° E
6 mins2025-05-09 23:17:25.648Z293.744° NW2025-05-09 23:19:25.648Z334.447° NNW39.645°2025-05-09 23:23:25.648Z91.762° ESE
5 mins2025-05-10 00:56:25.648Z273.08° WNW2025-05-10 00:58:25.648Z225.711° WSW34.747°2025-05-10 01:01:25.648Z139.099° SSE
|